Theta_e
304 304 303 304 304 303 303 303 303 303 304 303 303 303 303 307 311 313 314 311 304 303 304 303 303 303 303 303 303 302 302 302 301 299 299 299 299 299 300 300 301 301 302 302 302 302 301 301 300 300 301 301 301 300 299 299 299 299 299 299 298 298 297 297 297 298 299 300 300 299 299 299 299 299
305 304 303 301 302 302 302 303 303 303 303 303 303 303 302 303 305 306 309 311 306 303 304 304 303 303 303 303 302 302 302 301 300 298 298 299 298 299 300 300 301 301 301 301 302 302 301 301 300 300 300 300 300 299 299 299 299 298 298 297 297 297 297 296 296 297 299 299 299 299 298 298 298 298
305 304 302 301 301 301 301 302 303 302 302 303 303 303 302 301 302 302 304 307 305 302 304 304 303 303 303 303 302 302 301 301 299 298 298 298 298 298 299 300 300 300 301 301 301 301 301 301 300 300 300 300 299 299 298 298 298 298 297 296 296 296 296 296 296 297 298 298 298 298 298 298 298 298
304 302 302 303 303 302 302 302 303 303 302 302 302 303 303 302 302 302 302 304 303 302 303 303 303 303 303 302 302 301 301 299 297 297 298 297 297 298 299 299 300 300 301 301 301 301 301 301 300 299 300 300 299 299 298 298 298 297 296 296 296 295 295 296 296 297 297 297 297 298 297 298 297 298
305 305 305 305 304 303 303 303 303 303 303 303 302 302 302 302 302 302 302 303 303 303 302 302 302 302 302 302 302 301 301 298 297 297 297 296 297 298 299 299 300 300 301 301 300 301 301 301 300 299 299 299 299 298 298 298 297 297 296 296 296 295 295 295 295 295 295 296 297 297 297 297 297 297
306 306 305 305 305 304 304 303 303 303 302 302 302 302 302 302 302 302 302 303 303 303 302 302 301 302 302 302 301 301 300 298 297 297 297 296 297 298 298 299 300 300 301 301 301 301 301 301 300 299 299 299 299 298 298 297 297 297 296 296 296 295 295 294 294 294 294 295 296 296 296 296 296 296
304 304 304 304 304 304 303 303 303 303 303 302 301 302 302 302 302 301 302 303 303 303 302 301 301 302 302 301 301 301 299 297 297 297 296 297 297 297 298 299 299 300 301 301 301 301 301 300 299 299 299 299 299 298 298 297 297 297 296 296 296 295 295 294 294 294 294 294 294 295 295 295 295 296
304 304 304 304 304 304 303 303 302 303 303 302 301 301 302 301 301 301 301 302 302 302 302 301 301 301 302 301 301 300 298 297 297 296 296 297 297 297 298 298 299 300 300 301 301 301 301 299 298 299 299 299 299 299 298 298 297 297 297 296 296 295 295 294 294 293 293 293 293 294 294 295 295 295
305 305 304 304 304 304 304 303 303 303 303 302 301 301 301 301 300 301 301 301 301 301 301 300 300 301 301 300 300 299 298 298 297 296 296 297 297 297 298 298 299 299 300 300 301 301 301 299 298 298 299 299 299 299 299 298 298 297 297 296 296 295 295 294 293 293 293 293 293 293 294 294 294 294
305 305 305 304 304 304 304 304 303 303 302 302 301 300 300 300 300 300 301 300 300 300 299 300 300 301 300 300 299 298 297 297 297 296 297 297 297 297 297 298 299 299 300 300 300 301 301 300 299 298 298 299 299 299 299 299 298 297 297 296 296 295 294 293 293 293 293 293 293 293 293 293 293 294
305 305 305 305 305 304 304 303 302 302 302 302 300 299 299 299 300 300 300 299 299 299 298 299 300 301 300 299 298 297 296 297 297 297 297 297 297 297 297 298 299 299 299 300 300 301 302 300 299 298 298 298 299 299 299 299 298 298 297 296 296 295 294 293 293 293 293 293 293 293 293 293 293 293
305 305 305 304 304 304 303 303 301 300 301 301 300 298 297 298 299 299 299 298 298 298 297 298 300 300 299 298 297 297 297 297 297 297 297 297 297 297 298 298 299 299 299 299 299 301 301 300 299 299 298 298 298 298 298 299 298 298 297 296 296 295 294 293 293 293 293 293 293 293 293 293 294 293
305 305 304 304 303 303 302 301 298 298 300 301 299 297 295 296 297 297 297 297 296 296 296 298 299 299 298 298 298 297 298 298 298 298 298 298 298 297 298 299 299 299 299 299 299 300 301 300 299 299 299 298 298 298 298 298 298 298 298 296 295 295 294 294 293 293 293 293 293 293 294 294 294 294
305 304 304 303 302 301 300 297 295 296 298 298 296 294 294 295 295 294 294 295 294 294 295 296 297 298 298 298 298 298 298 299 299 299 299 298 298 298 298 298 299 299 299 299 299 300 300 300 299 299 299 298 298 297 297 298 298 298 298 296 295 295 294 294 293 293 293 293 293 293 294 294 294 295
304 303 303 302 299 297 295 294 293 294 295 295 295 296 297 297 297 297 296 296 295 295 295 296 297 297 298 298 299 299 299 300 300 300 300 299 298 298 297 297 299 299 299 299 299 299 299 299 299 299 299 298 297 297 297 297 298 298 298 296 295 295 294 294 293 293 294 294 294 294 294 294 294 295
304 303 303 299 295 293 293 293 294 294 295 297 298 299 300 301 301 301 300 300 298 297 297 297 297 297 298 299 299 300 300 300 300 300 300 299 299 298 297 297 298 299 299 299 299 299 299 299 299 299 299 298 297 297 297 297 298 298 298 296 295 295 294 294 293 293 294 294 295 295 295 295 295 295
304 304 301 295 291 293 294 294 295 297 298 300 301 301 302 302 302 302 302 302 301 299 298 298 298 297 298 299 300 301 300 300 301 301 300 299 299 299 299 299 299 299 299 299 299 299 299 299 299 299 299 298 297 297 297 297 297 298 298 296 295 295 294 294 293 293 293 294 295 295 296 296 296 296
304 304 301 297 295 297 297 295 297 300 301 301 301 301 302 303 303 303 303 303 302 300 299 299 299 298 299 300 300 301 301 301 301 301 300 299 299 299 300 299 299 299 299 299 298 298 299 298 298 299 299 298 298 297 296 297 297 297 297 296 295 295 295 294 294 293 294 294 295 295 296 297 297 296
304 304 303 302 301 301 300 298 298 300 301 301 301 302 303 303 303 303 303 303 303 301 300 300 299 299 300 301 301 302 302 301 301 300 300 299 299 300 300 299 299 299 299 299 298 298 299 299 298 299 299 298 298 297 296 297 297 297 297 297 295 295 295 294 294 293 294 294 295 295 296 298 299 298
305 304 304 304 303 302 302 301 300 300 300 300 300 301 303 304 303 303 304 304 302 301 300 299 299 300 301 301 301 302 301 300 300 299 299 299 299 300 300 299 299 299 299 299 298 298 298 298 298 299 299 298 298 297 297 297 297 297 297 297 296 295 295 294 294 293 294 294 295 295 296 298 300 299
305 305 304 304 303 303 303 303 303 302 300 297 297 299 302 303 303 303 303 302 301 300 299 298 298 300 301 301 301 301 301 300 300 299 299 299 299 300 299 298 298 299 299 299 298 298 298 298 298 299 299 298 298 297 297 297 297 297 297 297 296 295 295 295 294 293 294 294 294 295 295 297 299 300
306 305 304 304 304 304 304 304 304 303 300 296 294 299 302 303 303 303 302 301 301 300 298 298 300 301 301 301 301 301 300 300 299 299 300 299 299 299 299 298 298 298 298 298 298 298 298 298 298 298 298 298 298 297 297 297 297 297 297 297 296 295 294 295 294 293 293 294 294 294 294 295 297 300
305 305 305 304 304 304 304 304 304 303 302 297 295 300 303 303 303 303 302 302 302 300 298 299 301 301 300 300 300 300 300 300 299 300 300 299 299 299 298 298 298 298 298 298 298 298 298 298 298 298 297 297 298 297 297 297 297 298 298 297 296 295 294 295 294 293 293 293 293 293 293 294 295 297
304 305 305 305 304 304 304 304 303 303 303 299 295 299 302 302 302 303 302 302 300 298 298 300 301 300 300 300 300 300 300 300 300 300 300 299 299 299 299 299 298 298 298 298 298 298 298 298 298 298 297 298 298 297 297 297 297 298 298 297 296 295 294 295 295 294 293 293 292 292 293 293 294 294
305 305 305 304 304 304 303 303 303 303 303 301 296 296 298 300 301 301 301 298 297 298 300 300 300 300 300 300 300 300 300 300 300 300 299 299 299 299 299 299 299 298 298 298 298 298 298 298 298 298 298 298 297 296 296 297 297 298 297 297 296 296 295 294 295 294 293 292 292 292 292 292 292 293
306 305 305 304 304 304 304 303 303 302 303 302 298 295 295 296 297 298 297 296 296 298 300 300 300 300 300 299 299 300 300 300 300 299 299 299 299 299 299 299 299 298 298 298 298 298 298 298 298 297 297 298 297 296 296 296 297 297 297 297 296 296 295 294 294 295 294 293 292 292 292 292 292 292
306 305 305 305 305 305 304 304 303 302 302 302 298 295 294 295 295 296 296 295 296 297 298 299 300 300 299 299 299 299 299 300 300 299 299 299 299 299 299 299 299 299 298 298 299 298 298 298 298 298 298 298 296 296 296 296 297 297 297 297 297 296 295 294 294 294 294 293 292 292 292 291 291 291
305 305 304 305 305 305 305 304 302 301 301 300 297 294 294 295 295 295 295 295 295 296 298 299 300 300 300 299 299 299 300 300 299 299 299 299 299 299 299 299 299 299 298 298 299 299 298 299 298 298 298 298 297 296 295 296 297 298 297 297 297 296 295 294 294 294 294 294 293 292 292 291 291 291
304 304 304 304 304 304 304 304 301 299 298 297 294 293 294 294 295 295 295 295 296 297 298 299 300 300 300 300 299 299 299 299 299 299 299 299 299 299 299 299 299 299 298 298 298 299 299 299 298 298 298 298 297 297 296 297 297 298 297 296 296 296 296 295 294 294 294 294 294 293 292 292 291 291
303 303 303 304 304 304 304 302 300 298 296 295 294 294 294 294 295 295 295 296 297 298 299 299 299 300 300 300 299 298 299 299 299 299 299 299 299 299 299 299 299 299 298 298 298 299 298 299 298 298 298 298 298 298 297 297 298 297 297 296 296 296 296 295 294 294 294 294 294 293 293 292 291 291
302 302 302 303 303 303 302 300 298 296 295 295 294 294 293 294 295 295 296 296 297 298 298 299 299 299 300 300 299 298 299 299 299 299 299 299 299 299 299 299 299 299 298 298 299 298 298 299 299 298 298 298 298 298 298 298 298 297 297 297 296 296 296 295 295 294 294 294 294 294 294 293 292 292
301 300 300 300 300 300 299 297 296 295 295 295 294 294 294 294 295 295 296 296 297 298 299 299 300 300 300 299 299 299 299 299 299 299 299 299 299 299 299 299 299 299 298 298 298 298 298 299 299 299 299 298 298 298 298 298 298 297 297 297 297 297 296 296 295 295 295 294 294 294 294 294 293 292
299 299 299 297 297 297 297 296 296 295 295 295 295 295 294 294 295 296 297 298 299 300 300 300 300 300 300 299 299 299 299 299 299 299 299 299 299 299 299 299 299 299 298 298 298 298 298 298 299 299 299 298 298 298 297 298 298 297 297 297 297 297 297 296 295 295 295 294 294 294 294 294 294 293
299 299 299 298 298 298 297 297 297 296 296 297 297 295 294 295 296 298 300 300 301 301 301 301 300 300 299 299 299 299 299 299 299 299 299 299 299 299 299 299 299 299 298 298 298 298 298 298 299 299 299 299 298 298 298 298 297 297 297 297 297 297 297 297 296 295 295 295 294 294 294 294 294 294
298 298 299 299 299 299 298 298 298 297 297 297 296 295 295 297 299 300 300 300 300 301 301 300 300 300 299 299 300 300 299 299 299 299 299 299 299 299 299 299 299 299 298 298 298 298 298 298 298 298 298 298 298 298 298 298 297 297 297 297 297 297 297 297 296 296 295 295 295 294 294 294 294 294
298 298 298 300 300 299 299 298 298 298 298 297 296 296 297 299 300 300 300 300 300 300 300 300 300 299 299 300 300 300 300 300 300 299 299 299 299 299 299 299 299 298 298 298 298 298 298 298 298 298 297 296 296 297 298 298 298 297 297 297 298 298 298 297 297 297 296 295 295 294 293 294 294 294
297 297 298 299 300 300 299 299 298 298 298 298 298 298 299 300 300 300 300 300 300 300 300 300 300 300 300 300 300 300 300 300 299 299 299 299 299 299 299 299 299 299 298 298 298 298 299 298 298 298 296 296 298 299 298 298 299 298 297 297 297 298 298 297 297 297 297 296 296 295 294 294 294 295
297 296 296 298 299 300 299 299 298 298 298 299 299 299 300 300 300 300 300 300 300 300 300 300 300 300 300 300 300 300 300 299 299 298 298 299 298 298 298 299 299 299 298 298 298 299 299 298 298 298 297 297 299 299 298 297 298 299 298 298 297 298 298 298 297 297 297 297 296 296 295 294 294 295
296 295 294 295 297 298 299 299 299 299 299 299 299 299 299 299 299 300 300 300 300 300 300 300 300 300 300 300 299 299 299 298 298 299 298 298 298 297 298 299 299 298 298 298 298 298 299 298 299 299 298 297 298 299 298 297 297 298 299 298 298 298 298 298 297 297 297 297 297 297 296 296 295 295
294 293 292 293 294 296 297 299 299 299 298 298 298 298 298 298 298 299 299 299 299 299 300 300 300 300 300 299 299 299 298 298 298 298 298 298 298 298 298 298 298 298 298 298 298 298 299 298 299 299 299 298 298 298 298 298 298 298 298 298 298 298 298 298 298 297 297 297 297 296 296 296 296 296
294 294 293 293 294 295 297 298 298 298 297 297 297 297 297 297 297 298 298 298 298 299 300 300 300 300 300 299 299 298 298 298 298 298 298 298 298 298 298 298 298 298 298 298 298 298 298 298 299 299 299 299 299 298 298 297 297 297 298 298 298 298 299 299 298 298 297 297 297 296 296 296 295 295
295 296 295 295 295 296 296 297 297 297 297 296 296 296 297 297 297 297 297 298 298 299 300 300 300 299 299 299 299 298 298 298 298 298 298 298 298 298 298 298 298 298 298 298 298 298 298 298 299 299 299 299 299 298 297 296 296 297 298 298 298 298 299 299 299 298 298 298 298 297 296 295 295 295
296 296 296 296 296 296 296 296 296 296 295 294 294 295 296 297 296 296 297 298 299 299 299 299 299 299 299 299 299 298 298 298 298 298 298 298 298 298 298 298 298 299 299 298 298 299 299 299 299 299 299 299 298 298 297 297 297 297 298 298 298 298 299 299 299 299 299 299 299 298 297 296 296 296
296 296 296 296 296 296 295 295 294 294 293 293 294 295 296 297 297 297 297 297 298 298 299 299 299 299 299 299 299 299 298 298 298 298 298 298 298 298 298 298 298 299 298 298 299 299 299 299 299 299 299 299 298 298 298 297 297 297 298 298 298 298 298 299 299 299 299 299 299 299 298 297 297 297
295 295 295 295 294 294 293 294 294 295 295 296 296 297 298 298 298 297 297 297 297 297 297 298 298 299 299 299 299 299 299 299 299 298 298 297 298 298 298 298 298 298 299 299 298 298 298 298 299 299 299 299 298 298 298 298 297 297 297 298 298 298 298 299 299 299 299 299 299 299 299 299 298 297
Wind_Speed
12 12 11 11 12 11 10 12 12 11 11 10 10 9 9 8 4 2 3 3 5 10 11 10 12 15 16 17 20 20 21 23 26 28 29 29 30 29 27 26 26 26 26 26 29 30 25 25 32 33 30 31 30 30 31 30 29 27 26 25 25 24 23 23 24 23 23 23 22 22 21 21 21 20
13 13 12 12 12 11 10 11 11 10 10 9 9 9 9 9 7 5 2 1 4 9 10 11 14 16 16 17 19 20 21 23 26 28 29 30 30 28 26 27 27 26 26 26 28 29 25 24 31 33 32 33 32 32 32 30 28 28 27 28 28 28 27 26 26 24 22 23 23 23 23 22 22 21
12 12 12 12 12 11 10 10 9 9 9 8 7 7 8 8 8 6 4 0 3 7 10 12 13 15 16 17 18 20 21 24 26 28 29 30 29 28 27 28 27 26 26 25 27 29 26 23 30 32 32 33 33 34 32 28 27 27 29 30 30 30 29 27 26 24 23 23 23 23 24 23 22 22
12 13 13 12 11 10 9 9 9 7 7 7 7 7 7 7 6 5 5 2 5 7 9 12 13 14 15 16 18 20 22 24 27 28 30 30 29 28 28 28 27 25 26 26 28 30 26 22 29 32 31 32 33 33 32 28 26 28 31 32 31 31 30 28 26 25 24 24 23 23 23 22 22 22
12 12 12 10 9 8 7 7 6 5 4 5 6 6 5 5 5 4 4 4 7 9 10 12 13 14 15 16 18 20 22 26 27 28 30 30 29 29 28 28 27 25 25 26 29 32 26 21 28 32 29 29 30 31 30 28 29 31 34 35 36 36 34 29 27 26 25 25 24 23 23 22 22 22
11 11 11 11 10 8 6 6 6 5 6 5 5 5 4 3 3 4 5 5 7 10 13 14 14 15 15 16 17 19 23 26 27 29 31 29 29 29 29 29 27 25 25 25 29 32 24 21 29 31 27 26 27 28 28 28 29 30 32 35 39 40 38 33 29 28 27 26 25 24 24 23 22 22
11 11 11 10 10 8 6 6 6 6 7 4 4 4 4 3 3 3 4 6 8 11 13 15 16 16 15 16 17 19 23 25 26 29 30 29 30 29 29 29 28 26 25 25 28 28 21 23 30 29 25 25 25 26 27 27 28 29 30 34 40 43 41 36 31 29 28 27 26 25 24 23 22 22
12 11 10 10 10 8 6 5 6 7 6 5 3 2 3 4 4 3 2 6 9 10 13 15 15 15 15 16 17 20 23 24 26 29 30 29 31 31 30 30 29 28 27 27 27 24 19 25 31 28 25 25 25 27 28 27 28 29 30 35 42 45 43 38 32 29 28 27 25 24 23 22 22 22
12 11 10 10 10 8 7 6 6 7 5 4 1 2 1 2 3 2 3 7 9 10 12 14 14 15 16 16 17 20 23 24 26 29 31 31 31 32 33 32 31 31 30 29 28 22 20 26 32 30 27 26 26 27 28 28 28 28 30 37 44 47 43 38 33 30 28 27 26 24 23 23 23 23
11 11 10 10 9 9 8 7 6 7 6 3 2 0 2 2 1 1 3 6 8 10 11 12 14 16 16 17 19 21 21 22 23 27 31 33 33 32 33 34 33 32 31 31 29 24 22 27 33 33 29 27 27 28 29 28 28 27 31 40 46 47 44 38 34 31 29 28 26 25 24 24 24 24
11 11 12 11 11 10 9 8 7 7 7 3 1 1 2 2 1 1 3 5 7 9 10 11 14 16 16 17 19 19 19 21 23 24 26 30 33 34 34 34 34 34 33 33 32 27 24 27 33 34 31 28 28 29 30 29 28 27 32 43 48 48 44 39 35 32 29 27 26 25 24 24 24 23
13 13 13 12 11 10 9 8 8 8 7 5 2 2 3 3 2 2 3 4 7 9 9 10 13 15 16 17 18 19 19 21 24 25 24 26 29 33 34 34 34 34 34 34 34 31 26 28 34 35 33 31 29 30 31 30 27 27 34 45 50 48 44 40 36 32 29 27 26 25 24 24 23 22
14 13 13 12 11 10 9 7 6 8 8 5 2 2 2 2 2 3 3 5 7 8 10 11 12 15 16 17 19 20 20 21 23 26 26 25 28 31 33 35 34 32 33 35 36 34 29 29 34 36 34 34 32 33 34 31 28 28 35 47 51 48 44 41 37 33 29 27 26 25 24 23 22 20
14 13 12 11 10 9 8 6 5 7 7 5 2 3 4 4 4 5 6 6 7 9 10 11 12 15 16 17 18 19 20 20 22 25 26 27 29 29 28 31 33 33 32 34 36 35 31 30 34 36 35 35 36 37 36 33 28 28 36 48 52 47 44 42 38 34 31 28 26 25 23 23 21 19
14 13 11 8 8 9 8 7 6 7 7 6 5 4 4 5 5 6 7 7 8 9 10 11 12 13 15 17 18 19 20 21 23 26 27 27 29 27 22 22 27 33 33 32 33 35 34 32 34 35 34 35 38 39 37 33 29 29 36 48 52 47 43 42 38 34 31 29 28 26 24 23 21 19
15 12 9 7 8 9 9 9 8 8 7 5 3 2 3 4 5 6 6 7 7 8 9 11 12 13 15 17 19 20 21 23 25 26 27 28 28 27 23 21 26 32 34 31 30 32 35 35 33 33 34 36 38 39 37 34 31 31 36 47 53 48 43 43 39 33 30 29 28 28 26 24 21 18
14 11 8 8 10 10 8 8 8 6 4 1 1 2 4 5 6 7 8 8 8 8 8 10 13 14 15 17 20 22 24 26 26 27 28 28 27 27 26 26 29 33 33 30 27 28 33 37 34 31 33 37 38 37 37 35 33 33 37 46 53 50 45 43 40 35 31 30 29 29 28 26 22 18
14 10 8 9 9 7 5 6 7 6 4 4 5 5 6 7 8 9 10 11 11 9 9 11 14 14 15 18 22 24 26 28 27 26 26 25 25 27 27 27 30 32 33 32 26 22 29 36 34 30 33 36 37 37 37 37 36 35 38 45 52 52 47 44 41 36 33 32 31 30 29 27 22 17
13 11 9 8 7 4 3 6 9 8 8 7 7 6 6 7 8 9 11 11 10 9 9 12 14 15 16 19 23 25 25 24 21 20 21 22 23 25 25 27 30 31 33 32 24 19 26 35 33 31 34 35 35 37 38 39 38 37 39 44 51 53 50 45 43 38 34 34 33 32 31 26 21 17
14 13 11 8 6 4 5 8 10 10 10 11 10 9 8 6 7 9 10 8 7 7 10 13 15 16 17 20 23 22 18 15 15 17 20 23 24 23 23 25 28 30 32 32 25 20 25 32 31 32 36 34 32 36 40 40 40 39 40 43 48 52 51 46 43 39 35 35 34 34 32 26 19 16
14 13 11 9 8 8 10 11 12 12 12 12 12 11 9 7 6 7 6 4 4 7 11 13 15 16 17 19 18 13 11 14 17 19 22 23 24 22 19 18 23 29 30 30 28 24 25 31 31 30 35 34 31 34 40 43 41 39 42 44 45 49 51 47 44 40 36 35 35 35 34 30 21 15
15 14 14 14 13 11 11 13 13 14 13 12 12 12 10 7 6 6 5 5 7 10 11 11 12 13 14 15 13 9 10 17 20 20 21 22 22 21 19 18 22 26 27 30 31 26 26 32 32 28 28 30 31 35 39 43 43 40 41 44 44 46 49 48 44 41 36 35 36 35 34 32 25 18
18 17 18 18 17 14 12 13 15 16 15 13 12 13 11 9 7 7 7 8 11 12 12 10 11 13 14 13 11 8 11 17 20 19 19 19 20 21 23 23 20 15 19 30 32 27 26 31 33 29 21 16 23 36 41 41 43 42 43 45 43 43 47 48 45 42 37 35 36 36 34 33 30 24
20 21 21 19 19 18 16 15 16 17 15 14 13 14 13 11 10 10 10 10 10 11 11 11 12 15 15 13 12 9 11 17 19 17 16 18 21 22 24 26 22 15 19 31 33 28 28 29 31 33 25 13 16 32 40 41 42 43 44 46 44 41 45 48 47 44 39 36 36 36 35 34 31 28
22 24 23 21 20 20 18 18 18 18 16 14 13 14 15 13 13 13 12 10 8 9 11 12 14 16 14 13 12 11 13 18 18 16 16 19 22 23 23 26 25 22 25 31 31 30 31 29 29 31 29 21 20 28 35 38 41 44 44 45 44 40 41 45 47 45 42 38 36 36 35 33 32 29
24 23 22 22 22 20 18 19 20 19 18 16 14 14 14 14 14 14 13 10 8 9 12 14 15 16 13 12 13 12 14 18 16 15 19 21 21 22 23 24 24 23 26 30 31 30 30 29 30 30 27 23 24 28 30 30 36 43 44 45 43 38 37 41 44 44 43 40 37 35 34 33 32 30
22 21 21 23 23 21 19 19 21 22 21 19 16 14 14 13 13 12 11 10 10 11 14 15 16 15 12 12 13 13 15 16 14 14 20 22 21 22 24 24 22 23 26 28 28 28 27 29 32 31 26 24 23 24 24 26 33 40 42 44 44 38 35 37 40 41 42 39 36 36 36 36 36 33
18 18 19 20 22 22 20 19 19 21 22 20 16 15 14 12 11 10 11 11 10 12 15 15 16 14 11 11 13 14 15 15 12 14 20 21 20 22 24 24 22 22 26 27 26 26 28 30 31 29 27 27 24 21 21 26 32 37 38 41 43 39 35 34 36 39 40 37 34 34 35 35 36 36
15 14 16 17 19 21 22 21 19 19 20 18 15 14 13 12 11 11 12 11 11 14 15 15 16 14 10 10 12 13 15 13 11 14 20 20 19 21 24 25 24 24 27 26 25 26 28 31 31 27 27 31 29 25 25 27 31 35 36 36 39 39 37 35 35 36 38 37 33 31 31 31 31 32
14 13 14 16 17 19 23 24 21 19 17 15 14 14 14 13 14 13 13 12 13 15 17 17 18 15 11 10 11 12 13 13 12 15 19 21 19 20 23 25 25 27 29 26 25 27 29 31 31 27 27 32 33 31 29 27 28 33 37 36 35 35 36 37 36 34 36 37 34 31 30 31 30 29
17 13 11 12 13 17 22 23 19 17 16 15 14 14 14 14 15 14 14 14 15 18 20 20 19 17 14 12 12 12 13 13 13 15 18 19 18 19 21 23 22 25 28 27 26 26 28 31 31 28 27 31 32 32 30 27 26 30 36 38 35 32 34 37 36 34 34 34 33 32 32 33 33 32
21 15 10 10 12 16 19 20 18 17 16 15 14 14 14 15 15 15 15 16 17 20 21 21 21 19 17 14 12 13 13 13 13 15 16 17 17 17 19 21 19 20 25 27 27 27 28 30 31 29 28 30 31 30 29 28 28 29 33 37 38 36 35 35 34 34 34 33 31 31 31 32 34 33
23 17 14 14 16 17 18 18 18 18 16 15 15 15 15 16 16 15 15 17 18 19 20 20 18 15 14 12 12 13 14 14 14 15 16 16 16 16 18 20 18 18 22 26 27 27 28 29 30 30 31 33 33 30 25 24 29 32 32 34 37 38 37 36 34 33 33 31 31 30 29 30 33 32
23 20 19 19 18 18 18 19 19 18 17 16 17 17 16 16 16 15 15 16 17 18 20 19 15 11 10 10 12 13 14 15 16 16 15 15 15 15 18 20 18 18 21 25 26 26 26 28 30 31 32 35 36 33 27 23 27 33 34 34 35 36 37 36 35 33 31 30 30 29 27 29 31 32
24 23 23 23 22 20 20 20 19 18 18 18 19 18 17 17 16 16 16 15 15 16 17 16 13 11 11 13 14 15 16 16 18 16 14 15 16 17 18 19 17 18 21 24 26 26 25 26 28 28 29 32 32 32 32 30 29 30 32 34 36 37 36 36 36 35 32 30 29 27 25 26 30 32
25 25 25 24 23 22 21 21 20 18 17 19 19 18 18 17 16 16 15 14 13 14 15 15 15 15 15 16 16 17 17 18 17 14 14 17 19 18 19 20 17 16 19 22 25 25 25 26 26 23 20 20 16 16 25 35 34 29 28 32 35 37 36 35 36 38 35 32 29 27 23 23 26 29
26 27 26 26 25 23 23 22 20 17 17 18 18 18 19 18 18 17 14 12 13 15 16 17 18 18 18 17 17 18 17 16 14 13 15 19 19 20 22 21 17 15 18 20 23 25 24 26 27 22 15 11 6 6 18 34 38 33 29 30 33 36 36 35 35 37 37 34 31 29 25 22 23 26
27 27 27 27 27 26 25 24 20 18 18 18 19 20 21 20 20 19 16 14 14 15 16 16 16 16 15 14 13 13 12 12 12 14 17 19 20 22 23 19 15 15 18 19 21 23 23 24 27 24 17 10 5 5 12 24 32 35 34 32 31 34 36 34 32 34 35 35 34 32 27 23 21 23
28 28 28 29 29 28 26 24 21 20 19 19 20 20 20 19 19 18 16 14 14 16 17 14 10 9 9 7 7 9 11 12 15 18 19 20 22 25 23 17 14 16 18 19 20 21 22 23 25 25 23 18 14 15 17 21 27 33 35 33 33 35 35 33 31 31 32 34 34 33 31 27 24 24
28 28 29 29 29 28 26 24 22 21 20 20 20 19 17 17 16 15 14 13 14 16 15 12 8 7 7 9 11 14 16 17 18 19 20 21 24 25 21 16 15 17 19 20 21 21 21 22 23 23 25 24 23 25 26 25 27 33 36 35 34 35 35 33 31 29 29 31 32 31 30 29 27 26
27 27 27 27 27 26 26 25 23 22 21 22 21 19 18 17 16 15 15 16 17 15 12 10 9 9 10 13 15 16 17 18 17 18 20 21 21 19 15 13 15 19 19 20 21 21 21 22 23 23 24 24 24 24 22 19 21 29 35 36 34 34 34 32 29 26 26 29 29 26 24 24 24 25
27 27 26 26 25 25 25 25 24 23 23 23 22 20 19 18 18 18 17 16 15 15 13 11 11 12 12 13 14 15 17 18 18 18 18 17 14 13 13 14 19 22 21 19 20 21 22 23 24 23 22 22 22 19 16 15 19 26 33 36 35 34 31 28 25 25 26 28 27 23 19 18 17 18
27 27 27 26 26 25 25 26 26 25 25 24 22 21 21 21 21 20 18 14 12 12 12 12 12 13 13 14 14 15 16 18 19 18 18 15 14 15 17 19 22 24 23 21 22 24 25 25 25 24 21 22 21 18 18 21 24 27 31 33 35 36 33 28 24 24 27 30 29 25 19 14 11 12
28 28 28 27 27 26 26 26 25 25 24 23 23 22 23 22 21 19 18 16 13 13 13 14 15 15 15 15 15 16 17 18 20 21 20 19 18 19 21 22 24 24 24 23 24 26 26 27 27 24 21 21 22 21 21 23 25 27 29 31 33 35 35 32 29 27 28 31 32 30 25 20 15 15
29 29 28 27 26 25 24 23 22 21 21 21 21 22 22 21 19 17 16 16 15 15 16 17 17 17 17 16 16 17 18 19 21 21 21 20 20 21 22 24 25 25 24 23 24 24 24 25 26 24 22 22 23 23 23 23 24 25 28 29 31 33 34 33 32 29 28 30 33 32 29 26 20 17
Wind_Direction
125 124 124 123 118 119 123 114 101 93 85 78 71 64 68 83 101 73 6 341 29 30 12 357 349 350 354 355 352 352 354 354 351 352 359 2 0 360 1 2 3 0 358 353 349 347 344 353 5 6 3 4 4 1 0 359 359 358 355 352 349 345 341 338 335 332 327 326 327 326 325 325 322 317
126 122 119 117 115 116 119 116 107 98 92 84 73 61 62 72 80 79 59 321 13 15 1 351 344 342 350 353 350 351 354 351 349 354 0 0 359 1 4 6 4 2 358 353 350 348 343 353 6 6 5 7 6 5 4 1 4 6 3 358 353 349 345 342 339 334 326 324 322 320 319 317 317 316
133 127 119 114 110 110 112 110 104 97 92 87 80 67 58 62 64 56 56 57 339 356 349 342 339 340 346 349 349 351 351 348 349 356 360 359 359 3 5 6 5 2 358 353 353 350 344 356 7 6 6 6 4 5 6 6 8 6 1 357 352 347 343 338 334 329 324 322 319 318 317 314 313 311
131 126 119 112 106 106 107 104 99 90 80 79 81 78 65 59 49 36 44 3 308 334 346 338 338 344 347 349 351 350 348 346 350 357 358 357 0 4 5 5 4 3 360 356 356 352 347 358 7 5 3 3 2 2 3 5 4 358 355 353 350 346 341 335 329 324 321 320 317 317 317 314 313 310
133 132 129 124 121 122 115 112 111 95 89 98 89 75 62 53 38 19 25 352 314 325 342 340 342 348 350 350 352 352 347 346 350 356 357 357 2 4 3 2 2 2 0 359 359 355 350 358 3 0 359 360 1 0 359 359 357 352 352 351 349 345 340 334 327 322 319 317 314 313 313 312 311 309
142 145 144 142 143 145 137 133 137 114 97 109 108 74 42 34 37 17 6 346 312 314 330 339 343 348 352 352 353 353 348 347 350 352 354 357 1 2 1 0 0 0 358 358 359 358 354 355 356 354 353 355 357 359 359 358 356 353 351 351 349 346 341 335 328 323 319 314 311 309 307 308 308 307
148 149 151 152 151 151 144 142 155 136 96 95 129 95 57 52 44 16 355 338 315 309 322 334 340 346 353 354 354 350 346 348 350 350 353 357 0 2 1 359 359 358 356 355 357 360 358 356 353 348 345 348 350 352 355 355 354 353 351 350 350 347 342 337 331 326 323 317 313 309 306 305 306 305
156 154 152 153 150 145 141 141 162 154 107 84 137 136 74 50 22 5 355 340 327 319 324 331 340 348 352 352 352 347 346 350 350 349 353 358 0 1 360 358 357 357 358 355 355 359 1 358 356 347 338 340 343 345 347 348 349 351 351 351 350 347 343 340 335 331 328 324 319 314 308 305 306 305
162 158 152 152 151 149 150 150 161 161 127 82 86 188 178 15 3 7 5 347 338 335 336 339 344 349 349 349 349 349 350 351 350 353 357 358 358 358 358 359 358 357 357 354 352 354 356 356 357 352 339 332 336 340 341 342 344 348 350 351 350 347 345 342 339 334 330 328 323 317 310 306 305 304
165 161 156 157 159 163 170 175 178 171 150 109 33 250 228 291 346 24 357 346 343 344 344 345 348 348 349 350 348 349 351 351 349 352 355 356 356 355 354 356 358 357 355 353 349 348 347 349 353 354 345 333 332 336 338 338 341 345 350 351 351 349 346 344 342 338 333 329 324 318 312 308 305 303
167 167 167 170 173 177 186 195 193 178 164 156 147 269 261 270 299 7 352 343 344 345 345 348 349 346 347 349 347 349 352 353 353 352 348 348 352 352 350 349 352 354 353 351 349 345 342 346 349 352 351 343 335 336 337 337 338 343 350 353 352 350 348 347 344 340 336 332 327 321 316 313 309 304
174 177 179 182 184 187 194 205 203 187 178 180 199 283 284 271 282 335 349 343 343 347 347 348 348 344 342 345 346 348 351 350 351 352 344 338 342 346 347 348 349 350 348 347 347 344 342 345 347 349 351 350 344 340 339 338 337 341 349 354 353 351 350 349 346 342 338 335 331 326 323 320 316 310
180 186 189 192 195 199 206 214 208 193 191 201 229 323 322 300 327 354 6 354 347 350 350 347 345 340 337 339 339 341 345 343 341 344 343 339 341 342 342 346 350 350 346 343 343 343 343 344 345 347 350 352 351 346 344 342 337 339 349 355 355 353 351 350 348 345 341 337 335 331 328 325 322 317
185 191 195 200 205 209 212 204 186 183 188 189 155 93 73 57 41 34 28 15 0 356 354 351 347 337 329 332 334 333 337 339 337 340 341 340 342 342 340 342 348 350 346 340 339 341 344 344 343 346 350 353 353 351 348 345 339 338 349 356 356 355 353 351 349 347 345 342 340 337 330 324 323 320
187 191 197 206 203 196 191 181 165 161 160 146 126 103 70 47 38 31 25 16 4 357 352 346 343 332 321 326 332 329 332 336 335 336 339 340 340 340 336 331 338 346 345 338 335 338 344 345 342 345 352 354 354 354 351 347 341 338 348 356 357 356 355 353 351 349 347 345 343 340 334 325 320 318
188 190 196 197 185 175 174 171 160 150 145 133 112 76 25 2 356 354 351 349 347 345 342 336 333 326 318 320 327 328 328 330 330 332 338 341 338 334 331 323 326 339 344 338 333 334 341 344 341 344 353 355 354 355 354 351 344 340 348 356 358 358 356 354 353 352 349 348 346 342 337 329 319 311
190 193 196 184 174 171 174 175 170 164 160 164 279 313 321 320 319 315 313 312 313 317 323 323 324 325 318 315 321 326 325 323 325 328 333 338 336 330 329 325 326 337 343 339 331 330 338 343 341 342 352 354 353 355 356 353 348 343 347 356 359 359 358 356 355 354 353 351 350 347 342 336 324 309
197 200 197 183 177 181 199 213 212 214 235 256 263 272 285 296 300 299 298 293 288 296 312 311 315 325 323 315 318 325 326 323 323 325 328 333 332 329 330 332 335 343 347 343 333 326 335 343 340 340 350 353 352 355 356 354 351 346 347 354 359 360 359 357 357 357 357 355 355 353 349 343 331 313
205 205 195 185 183 192 246 253 241 239 247 252 252 259 274 290 297 297 301 297 283 286 305 306 310 321 324 319 319 323 327 329 330 331 332 334 332 330 334 339 342 347 350 349 339 322 333 343 341 339 347 350 351 355 355 352 351 349 348 353 358 360 0 359 359 0 1 0 0 360 357 349 335 318
211 207 194 190 197 210 233 242 244 244 246 248 248 250 259 279 299 303 305 299 275 280 305 311 313 318 320 320 321 325 332 344 351 348 343 341 339 336 335 337 339 342 348 354 348 326 331 343 342 339 344 347 349 354 354 351 350 349 349 352 356 360 0 0 1 2 3 4 5 5 4 360 347 328
200 199 197 203 208 216 226 235 244 249 252 254 250 244 246 260 289 300 291 263 254 292 309 310 309 312 317 322 327 337 358 7 1 350 342 342 343 339 334 331 332 335 343 353 351 337 335 343 342 339 343 345 348 352 352 350 349 349 350 351 355 359 0 1 3 5 5 7 9 8 7 9 7 352
186 195 210 214 210 215 223 227 236 248 257 259 245 234 236 249 268 282 275 265 279 299 305 304 307 314 323 334 343 1 13 7 358 346 341 344 344 340 334 328 328 332 341 351 352 343 339 343 342 339 340 343 348 350 349 349 349 349 349 351 354 358 0 1 4 7 8 10 11 10 9 11 14 9
195 205 218 221 216 218 220 221 233 247 255 255 240 229 234 247 257 269 283 292 299 306 309 310 318 325 331 344 355 359 358 358 353 345 345 352 351 344 338 335 332 327 338 352 354 345 340 343 344 343 342 337 343 348 347 348 350 350 349 350 352 357 360 2 4 7 9 11 11 10 11 13 14 12
201 207 217 222 219 219 220 224 236 246 250 251 242 234 240 250 257 264 281 297 303 309 314 313 318 324 330 343 351 345 344 351 349 347 354 359 355 349 343 342 340 329 338 353 356 347 341 343 344 346 347 338 334 342 344 346 350 351 350 350 351 355 360 3 4 6 8 11 12 10 12 16 17 15
201 207 217 221 220 220 223 229 238 241 244 249 248 243 247 253 258 266 280 295 298 301 306 308 316 324 331 342 347 343 344 348 348 352 360 359 354 352 349 344 340 337 346 356 356 348 344 344 343 344 347 344 336 337 341 344 348 351 351 350 351 353 358 3 4 5 6 9 10 10 10 14 17 18
201 208 217 221 221 224 228 232 237 238 240 247 253 252 251 253 258 266 278 289 289 290 299 305 313 322 331 341 346 345 345 345 347 356 360 355 351 353 353 349 342 343 351 356 356 352 348 345 345 346 345 343 340 339 338 340 345 349 351 352 352 352 357 2 4 5 6 7 7 7 8 12 15 18
197 206 215 220 223 229 234 235 236 236 238 245 253 254 251 252 257 265 274 280 278 283 294 301 307 317 330 340 341 341 341 341 347 358 356 349 347 351 353 352 350 352 355 356 357 358 353 348 349 350 347 343 340 339 337 336 340 345 348 350 352 352 355 1 4 5 6 6 6 7 8 11 13 15
191 201 211 219 224 229 233 234 234 235 238 244 250 251 248 250 256 261 267 271 275 281 288 293 298 307 325 336 333 335 337 337 345 356 352 347 346 348 349 348 350 355 358 356 357 360 356 351 350 352 352 349 343 337 335 334 336 341 344 347 351 352 354 359 3 5 6 6 7 8 10 11 11 12
201 207 215 221 223 225 228 230 228 230 234 239 243 245 246 247 251 255 259 265 271 274 276 284 293 299 314 324 326 334 338 335 341 351 348 344 346 349 348 345 347 354 357 356 358 0 358 355 352 351 352 352 347 340 337 334 335 341 344 344 347 350 353 358 2 4 5 7 8 10 11 12 12 13
217 225 226 226 225 223 222 221 221 222 226 231 237 240 242 246 249 252 256 260 265 269 274 282 288 291 299 311 321 333 335 331 340 347 342 339 344 349 346 342 343 350 353 355 359 1 358 357 355 351 350 351 349 345 342 336 334 342 347 347 345 347 351 356 1 4 5 6 9 11 13 16 18 17
226 235 233 225 223 217 213 213 216 219 223 229 236 240 243 248 252 254 256 259 264 270 276 281 283 284 286 295 313 327 324 321 332 336 333 333 339 344 342 337 338 346 349 352 358 2 359 356 355 351 349 349 348 347 346 342 336 340 347 350 349 347 348 353 359 3 4 5 9 12 13 16 19 19
229 235 227 203 195 196 200 205 211 217 223 230 239 246 249 251 253 256 260 263 265 269 274 279 282 281 277 281 306 320 312 309 319 323 325 330 334 339 339 335 334 343 346 347 353 358 359 357 354 351 349 348 347 348 348 346 343 342 346 350 351 351 350 352 356 0 2 3 6 11 14 16 18 20
226 224 212 195 188 191 198 206 213 221 227 235 244 253 255 253 253 256 261 266 269 272 277 280 280 275 268 277 304 312 300 297 307 315 322 329 331 335 337 334 334 341 343 343 346 351 354 355 353 351 350 350 350 351 348 344 344 345 346 349 350 351 352 353 355 359 2 2 2 6 12 16 17 19
222 217 210 205 202 203 206 213 221 227 232 240 249 256 257 253 251 255 264 272 275 274 275 275 269 257 258 280 302 302 293 294 303 309 318 326 326 327 330 330 333 339 341 340 342 344 347 349 349 349 349 350 354 358 357 348 343 345 348 350 350 350 351 353 354 358 2 3 1 0 4 12 17 20
216 213 211 211 211 211 214 221 228 232 239 247 252 255 254 251 251 259 268 271 269 266 268 267 260 254 265 282 293 293 291 296 303 306 312 318 318 318 321 321 325 334 339 339 339 341 342 341 342 344 344 346 350 356 357 353 345 342 346 349 350 350 351 352 353 356 0 3 3 0 357 1 11 19
216 214 212 213 214 214 218 224 230 235 244 250 249 249 251 252 256 265 270 266 261 264 270 270 264 262 269 277 283 288 292 298 302 302 307 314 315 315 316 314 314 325 335 336 336 339 338 336 336 339 339 341 343 345 346 348 348 345 342 345 348 351 351 350 352 356 359 360 2 2 355 352 2 15
218 217 215 215 216 217 221 225 229 236 246 249 248 250 254 258 264 269 269 266 268 274 280 280 273 266 267 275 282 287 291 294 294 295 305 313 314 315 314 310 306 317 329 332 334 337 335 332 332 334 334 338 340 317 330 341 347 350 346 341 344 349 351 348 348 353 357 357 358 1 358 352 358 12
222 220 219 219 220 222 225 228 231 237 244 247 248 251 256 262 267 267 264 265 271 278 283 282 273 265 267 275 282 286 288 288 289 296 306 310 311 312 311 304 301 314 322 324 328 333 332 330 331 332 330 325 315 306 320 329 338 346 348 344 341 347 351 349 344 345 351 354 354 357 360 358 359 9
225 224 223 223 223 225 227 228 229 234 238 242 247 252 258 265 268 265 262 263 271 279 282 278 266 260 267 275 284 291 295 294 292 297 302 304 306 309 306 297 298 311 315 314 319 325 326 327 330 332 329 322 315 317 318 316 322 337 347 349 345 345 349 350 344 340 345 350 351 352 358 2 5 8
224 226 226 226 225 226 226 225 226 230 234 240 246 252 260 269 272 268 264 267 275 279 275 263 254 260 275 290 300 303 302 299 295 296 300 303 306 308 303 294 300 309 308 306 310 313 317 323 329 330 327 323 320 321 324 323 326 334 343 350 351 347 347 348 345 339 340 347 348 347 351 357 1 4
221 224 226 227 227 226 225 225 227 230 233 239 247 256 264 271 272 269 268 272 275 271 259 253 264 279 287 296 304 305 304 304 304 305 307 307 307 307 302 299 309 314 308 300 301 306 312 320 325 325 323 321 322 324 326 326 325 328 334 343 349 351 350 350 345 339 340 346 347 344 344 348 351 356
220 223 226 226 227 226 227 228 231 235 238 243 252 261 265 266 264 264 269 274 270 261 258 265 277 283 285 292 298 301 303 306 309 313 313 306 299 303 312 314 315 315 309 300 300 308 313 316 318 320 320 319 322 324 321 314 313 319 327 334 341 347 351 351 346 342 345 350 350 345 340 342 345 349
223 225 227 227 228 230 231 234 237 241 244 248 251 255 259 262 262 263 267 271 266 262 268 276 279 278 280 284 289 292 295 298 300 303 303 298 294 302 311 313 312 310 306 301 303 310 312 312 313 316 317 319 321 320 314 312 314 319 324 328 333 339 345 348 346 344 347 351 352 349 343 338 334 335
225 227 229 231 233 235 238 240 242 246 249 250 250 252 257 263 265 263 264 267 272 278 282 283 281 279 278 279 281 282 285 290 293 294 293 293 294 298 303 305 306 304 302 303 309 314 315 314 313 312 313 317 320 318 313 314 316 319 322 326 329 334 340 343 342 340 343 347 350 349 345 342 340 338
227 229 231 234 237 239 242 244 246 248 250 251 253 257 262 265 265 261 259 264 275 285 288 286 283 280 277 276 278 282 286 292 294 293 293 292 293 295 299 301 301 299 300 306 312 314 317 318 315 311 310 314 318 318 316 316 317 318 321 325 327 331 336 338 338 335 334 340 346 347 343 340 341 341